Regional Weather Roundup
Issued by NWS Kansas City/Pleasant Hill, MO

Home | Current Version | Previous Version | Text Only | Print | Product List | Glossary On
Versions: 1 2 3 4 5 6 7 8 9 10 11 12 13 14 15 16 17 18 19 20 21 22 23 24 25 26 27 28 29 30 31 32 33 34 35 36 37 38 39 40 41 42 43 44 45 46 47 48 49 50
000
ASUS43 KEAX 221011
RWREAX

WEATHER ROUNDUP FOR EASTERN KANSAS AND NORTHWEST MISSOURI
NATIONAL WEATHER SERVICE KANSAS CITY/PLEASANT HILL MO
500 AM CDT MON SEP 22 2014

KSZ040-057-103>105-MOZ028-029-037-043-221100-
...KANSAS CITY METROPOLITAN AREA...

CITY           SKY/WX    TMP DP  RH WIND       PRES   REMARKS
K.C. INTL      CLEAR     51  48  89 NE5       30.29R
K.C. DOWNTOWN  CLEAR     54  51  90 NW3       30.28R
LEES SUMMIT    CLEAR     53  49  86 N3        30.28R
OLATHE - IXD   CLEAR     50  47  89 CALM      30.28R
OLATHE - OJC   CLEAR     52  48  86 N5        30.27R
LAWRENCE       CLEAR     46  44  93 N5        30.29R

$$

MOZ001>008-011>017-020>025-030>033-038>040-044>046-053-054-221100-
...NORTHERN AND CENTRAL MISSOURI...

CITY           SKY/WX    TMP DP  RH WIND       PRES   REMARKS
ST. JOSEPH     CLEAR     45  44  97 CALM      30.30R
MOSBY          SUNNY     46  46 100 CALM      30.29R
WHITEMAN AFB   NOT AVBL
CLINTON        CLEAR     52  50  93 NE3       30.27R FOG
SEDALIA        CLEAR     51  48  89 NW5       30.26R
WARSAW         NOT AVBL
MARSHALL       CLEAR     54  52  94 NW6       30.28R
CHILLICOTHE      N/A     50  47  89 CALM      30.29R
MOBERLY        CLEAR     48  45  87 W3        30.27R
KIRKSVILLE     CLEAR     49  46  90 N3        30.27R

$$

MOZ041-047>049-056>058-063>065-088>090-097-221100-
...EASTERN AND SOUTHERN MISSOURI...

CITY           SKY/WX    TMP DP  RH WIND       PRES   REMARKS
ST. LOUIS INTL CLEAR     55  49  80 NW3       30.22R
SPIRIT OF STL  CLEAR     51  48  89 CALM      30.21R
COLUMBIA       CLEAR     50  48  93 NW6       30.25R
JEFFERSON CITY CLEAR     51  49  92 NW6       30.25R
MEXICO         CLEAR    N/A N/A N/A N5        30.25R
HANNIBAL       CLEAR     50  48  93 NW3       30.25S
ROLLA          CLEAR     48  45  89 NW3       30.22R
LEBANON        CLEAR     50  48  93 CALM      30.25S
OSAGE BEACH    CLEAR     48  45  87 CALM      30.25R
SPRINGFIELD    CLEAR     50  47  89 CALM      30.24R
BRANSON        CLEAR     50  48  93 CALM      30.25R
NEVADA         CLEAR     50  48  93 N3        30.28R
JOPLIN         CLEAR     52  49  89 NE5       30.26R
WEST PLAINS    CLEAR     52  47  83 N5        30.24R

$$

IAZ060-094-KSZ022-034>040-054-083-096-NEZ052-066-093-221100-
...KANSAS...SOUTHEAST NEBRASKA AND IOWA...

CITY           SKY/WX    TMP DP  RH WIND       PRES   REMARKS
TOPEKA         CLEAR     50  49  96 CALM      30.29S
MANHATTAN      CLEAR     45  43  93 NE3       30.30R
EMPORIA        CLEAR     51  48  89 CALM      30.28R
CHANUTE        CLEAR     51  49  92 N3        30.27R
WICHITA        PTCLDY    59  46  62 E5        30.28R
OMAHA          CLEAR     49  47  93 CALM      30.30S
LINCOLN        CLEAR     45  42  89 N3        30.31R
FALLS CITY     CLEAR     48  46  93 NW3       30.29R
LAMONI         CLEAR     47  45  93 NW5       30.29R
DES MOINES     CLEAR     50  47  89 CALM      30.27R

$$




USA.gov is the U.S. government's official web portal to all federal, state and local government web resources and services.